sat.trackr.live / text

‹ back to catalog

STARLINK-35056

NORAD 66266 · 2025-247B

PAYLOAD ACTIVE UNKNOWN

§ Identity

Operator
Country
US
Launch date
2025-10-31
Launch site
AFWTR
Launch vehicle
Mass (kg)
RCS (m²)

Purposes: comms

External: N2YO · Heavens-Above · Gunter

§ Orbital elements

Epoch: 2026-05-25T04:01:39.118368Z

Period
94.10 min
Inclination
53.1575°
Eccentricity
0.0001295
Mean motion
15.30209721 rev/d
Perigee alt
474.3 km
Apogee alt
476.1 km
Semi-major
6,853.3 km
B*
4.7180e-4
RAAN
196.1551°
Arg perigee
76.1985°
Mean anomaly
283.9159°
Rev number
3,274

§ Raw data

STARLINK-350561 66266U 25247B   26145.16781387  .00013644  00000+0  47180-3 0  99952 66266  53.1575 196.1551 0001295  76.1985 283.9159 15.30209721 32748

JSON: /api/v1/satellites/66266 · /tle

For live sub-satellite position, see the globe view (requires WebGL).

§ Visibility from observer

Set your observer location to see the next 7 days of passes ≥ 10°. The values pass through the URL so the page stays shareable.

No JS? Fill the form by hand. The geolocation button needs JavaScript.